BEIDOU-2 IGSO-4 (C09)

Last updated on Wed Aug 26 2026 00:04:16 GMT+0000 (Coordinated Universal Time)

1 37763U 11038A 26236.77947321 -.00000108 00000+0 00000+0 0 9996 2 37763 54.6047 165.0638 0160354 231.1424 312.0561 1.00272093 55337
UTC large
Height (km)
Speed (km/s)
/
Latitude / Longitude
Inclination (degrees)
Orbital Period (minutes)
Azimuth
Elevation
Range (km)
Doppler Factor

Next 0 passes for location: London (51.5072 / 0.1276)

No passes found over London.
BEIDOU-2 IGSO-4 (C09)